Probability
0 0 0 0 0 0 0 0 0 0 0 0 0 0 0 0 0 0 0 0 0 0 0 1 1 1 1 2 3 2 1 0 0 0 0 0 0 0 0 0 0 0 0 0
0 0 0 0 0 0 0 0 0 0 0 0 0 0 0 0 0 0 0 0 0 0 0 0 1 1 2 2 3 3 2 0 0 0 0 0 0 0 0 0 0 0 0 0
0 0 0 0 0 0 0 0 0 0 0 0 0 0 0 0 0 0 0 0 0 0 0 0 0 1 1 1 2 3 3 1 0 0 0 0 0 0 0 0 0 0 0 0
0 0 0 0 0 0 0 0 0 0 0 0 0 0 0 0 0 0 0 0 0 0 0 0 0 0 0 0 0 1 3 2 1 1 0 0 0 0 0 0 0 0 0 0
0 0 0 0 0 0 0 0 0 0 0 0 0 0 0 0 0 0 0 0 0 0 0 0 0 0 0 0 0 1 2 3 3 2 1 0 0 0 0 0 0 0 0 0
0 0 0 0 0 0 0 0 0 0 0 0 0 0 0 0 0 0 0 0 0 0 0 0 0 0 0 0 0 0 1 2 3 3 2 1 0 0 0 0 0 0 0 0
0 0 0 0 0 0 0 0 0 0 0 0 0 0 0 0 0 0 0 0 0 0 0 0 0 0 0 0 0 0 0 1 1 2 2 2 1 0 0 0 0 0 0 0
0 0 0 0 0 0 0 0 0 0 0 0 0 0 0 0 0 0 0 0 0 0 0 0 0 0 0 0 0 0 0 0 0 1 1 1 1 0 0 0 0 0 0 0
0 0 0 0 0 0 0 0 0 0 0 0 0 0 0 0 0 0 0 0 0 0 0 0 0 0 0 0 0 0 0 0 0 0 0 0 0 0 0 0 0 0 0 0
0 0 0 0 0 0 0 0 0 0 0 0 0 0 0 0 0 0 0 0 0 0 0 0 0 0 0 0 0 0 0 0 0 0 0 0 0 0 0 0 0 0 0 1
0 0 0 0 0 0 0 0 0 0 0 0 0 0 0 0 0 0 0 0 0 0 0 0 0 0 0 0 0 0 0 0 0 0 0 0 0 0 0 0 0 0 1 2
0 0 0 0 0 0 0 0 0 0 0 0 0 0 0 0 0 0 0 0 0 0 0 0 0 0 0 0 0 0 0 0 0 0 0 0 0 0 0 0 0 0 1 2
0 0 0 0 0 0 0 0 0 0 0 0 0 0 0 0 0 0 0 0 0 0 0 0 0 0 0 0 0 0 0 0 0 0 0 0 0 0 0 0 0 0 0 1
0 0 0 0 0 0 0 0 0 0 0 0 0 0 0 0 0 0 0 0 0 0 0 0 0 0 0 0 0 0 0 0 0 0 0 0 0 0 0 0 0 0 0 0
0 0 0 0 0 0 0 0 0 0 0 0 0 0 0 0 0 0 0 0 0 0 0 0 0 0 0 0 0 0 0 0 0 0 0 0 0 0 0 0 0 0 0 0
0 0 0 0 0 0 0 0 0 0 0 0 0 0 0 0 0 0 0 0 0 0 0 0 0 0 0 0 0 0 0 0 0 0 0 0 0 0 0 0 0 0 0 0
0 0 0 0 0 0 0 0 0 0 0 0 0 0 0 0 0 0 0 0 0 0 0 0 0 0 0 0 0 0 0 0 0 0 0 0 0 0 0 0 0 0 0 0
0 0 0 0 0 0 0 0 0 0 0 0 0 0 0 0 0 0 0 0 0 0 0 0 0 0 0 0 0 0 0 0 0 0 0 0 0 0 0 0 0 0 0 0
0 0 0 0 0 0 0 0 0 0 0 0 0 0 0 0 0 0 0 0 0 0 0 0 0 0 0 0 0 0 0 0 0 0 0 0 0 0 0 0 0 0 0 0
0 0 0 0 0 0 0 0 0 0 0 0 0 0 0 0 0 0 0 0 0 0 0 0 0 0 0 0 0 0 0 0 0 0 0 0 0 0 0 0 0 0 0 0
0 0 0 0 0 0 0 0 0 0 0 0 0 0 0 0 0 0 0 0 0 0 0 0 0 0 0 0 0 0 0 0 0 0 0 0 0 0 0 0 0 0 0 0
0 0 0 0 0 0 0 0 0 0 0 0 0 0 0 0 0 0 0 0 0 0 0 0 0 0 0 0 0 0 0 0 0 0 0 0 0 0 0 0 0 0 0 0
0 0 0 0 0 0 0 0 0 0 0 0 0 0 0 0 0 0 0 0 0 0 0 0 0 0 0 0 0 0 0 0 0 0 0 0 0 0 0 0 0 0 0 0
0 0 0 0 0 0 0 0 0 0 0 0 0 0 0 0 0 0 0 0 0 0 0 0 0 0 0 0 0 0 0 0 0 0 0 0 0 0 0 0 0 0 0 0
0 0 0 0 0 0 0 0 0 0 0 0 0 0 0 0 0 0 0 0 0 0 0 0 0 0 0 0 0 0 0 0 0 0 0 0 0 0 0 0 0 0 0 0
0 0 0 0 0 0 0 0 0 0 0 0 0 0 0 0 0 0 0 0 0 0 0 0 0 0 0 0 0 0 0 0 0 0 0 0 0 0 0 0 0 0 0 0
Wind_Speed
1 3 4 5 6 6 5 7 9 8 4 6 10 13 11 7 7 8 7 6 6 6 4 3 4 4 4 4 4 4 4 4 3 3 2 2 2 1 1 1 1 1 1 0
3 5 5 4 4 6 7 9 10 7 3 6 9 13 11 8 7 7 7 6 6 5 4 3 3 4 4 5 5 5 4 4 4 3 2 1 2 1 1 1 1 0 0 0
6 1 2 4 5 6 8 10 10 8 5 4 8 10 8 6 6 6 5 6 5 5 5 4 4 3 3 3 4 4 4 4 4 4 2 2 2 1 1 1 1 1 1 1
3 2 2 4 5 7 8 6 8 8 7 4 3 9 5 5 6 5 5 4 4 4 4 4 4 4 3 2 3 3 4 4 4 4 4 4 3 3 3 2 2 2 2 1
2 1 3 5 4 6 4 2 4 6 6 7 5 8 7 2 5 6 5 4 4 4 4 4 4 3 2 2 2 3 3 4 4 4 4 4 4 3 2 2 3 2 2 2
2 1 2 2 1 3 1 1 1 2 4 7 7 8 8 3 5 4 4 4 3 3 2 3 2 2 1 1 1 1 2 3 3 4 4 4 4 3 3 3 3 2 1 2
3 3 1 1 1 2 2 3 3 3 4 5 3 7 9 2 2 4 4 4 3 2 2 2 2 2 2 1 1 1 2 2 3 4 4 4 4 4 4 4 3 3 2 2
4 4 3 2 3 3 4 4 4 5 5 4 4 9 5 2 2 2 3 3 2 1 1 1 2 2 2 2 2 1 2 2 2 3 3 4 4 3 3 3 3 3 3 3
4 4 1 1 2 3 3 4 2 4 4 7 7 6 6 3 3 2 2 1 2 1 1 1 1 1 2 2 2 2 2 2 2 2 2 3 4 4 3 3 3 3 3 2
4 6 3 1 2 2 3 3 3 4 5 8 8 8 5 4 4 3 3 2 2 1 1 1 1 1 1 1 1 2 2 2 2 2 2 2 3 3 3 3 3 3 3 3
4 5 3 3 6 7 5 5 5 4 4 6 8 6 2 5 4 3 3 3 3 2 2 2 2 1 1 1 1 1 2 2 2 2 2 3 3 3 3 3 4 3 3 3
3 4 6 6 1 2 5 6 7 6 6 6 7 8 1 3 3 3 4 3 3 3 2 2 1 2 2 2 1 2 2 2 2 2 2 3 3 3 3 3 3 3 4 4
4 4 4 3 4 3 4 5 7 5 5 7 9 9 1 1 3 4 4 4 3 3 2 2 2 2 2 2 2 2 2 2 2 2 2 2 3 3 3 3 3 3 4 4
4 5 8 9 4 3 5 7 8 8 8 10 14 15 8 7 7 6 5 5 4 3 3 3 3 3 3 3 3 3 3 2 2 2 2 3 3 3 3 3 3 3 4 4
3 6 8 12 10 7 9 10 11 14 14 13 15 15 15 11 9 7 5 5 4 4 4 4 4 4 3 3 3 3 3 2 2 3 3 3 3 3 3 3 3 3 3 4
3 5 4 8 7 8 12 14 14 16 16 18 19 20 13 9 7 6 6 5 6 5 5 4 4 4 4 3 3 3 3 3 3 3 3 3 3 3 3 3 3 3 3 4
5 5 5 8 5 7 13 13 15 13 12 12 16 16 9 8 8 8 6 5 6 6 5 5 5 4 4 4 4 4 3 3 3 3 3 3 3 3 3 3 3 4 4 4
6 5 4 6 4 12 6 2 8 11 12 13 12 10 8 8 8 6 5 6 6 5 5 5 5 5 4 3 3 3 3 3 3 3 3 3 3 3 3 3 4 4 4 4
7 7 5 4 8 12 6 4 5 8 10 8 11 11 8 6 6 5 3 4 5 5 5 5 4 4 3 2 2 2 2 2 3 3 3 3 3 3 3 4 4 4 4 4
4 5 6 6 8 10 4 2 2 3 7 4 6 8 5 3 5 3 1 3 4 4 3 3 2 2 2 2 2 2 2 2 3 4 3 3 3 4 4 4 4 4 4 4
5 6 9 11 11 11 1 3 5 6 4 0 4 5 4 6 5 3 3 4 3 3 2 2 1 1 1 1 1 2 2 3 4 4 3 3 3 4 4 4 4 4 4 4
8 8 9 8 10 10 4 6 7 3 2 1 2 3 5 6 3 3 3 3 3 2 2 1 1 1 1 1 2 2 3 3 3 3 3 3 3 3 3 4 4 4 4 4
8 7 5 8 7 1 6 5 2 1 2 3 3 4 4 4 4 3 3 3 2 2 2 1 1 2 2 2 2 3 3 3 3 3 3 3 3 3 3 3 4 4 4 4
4 2 4 6 8 5 5 4 3 3 4 4 4 4 4 4 4 4 3 2 2 2 2 1 1 2 2 2 2 3 3 3 3 3 3 3 3 3 3 3 3 3 4 4
4 5 5 7 7 5 6 6 6 4 4 4 3 3 3 4 4 3 3 3 2 2 2 1 2 2 3 3 3 3 3 2 3 3 3 3 3 3 3 3 3 4 4 5
5 7 7 7 4 5 4 1 2 3 4 3 2 3 2 3 3 3 3 2 2 2 2 2 2 3 3 3 4 3 3 3 3 3 3 3 3 3 3 3 3 5 6 7
Wind_Direction
152 198 217 224 228 255 266 263 267 271 284 266 258 266 271 271 261 255 250 245 241 243 238 217 206 196 193 192 196 188 177 176 168 161 166 165 166 140 120 107 79 63 42 73
182 225 239 245 233 238 247 260 272 280 287 269 273 273 270 259 254 259 255 247 243 245 235 222 219 209 203 198 197 194 188 183 175 172 179 183 173 161 141 130 127 137 125 132
214 231 241 224 229 238 246 254 267 279 294 249 284 271 248 241 246 256 256 252 250 243 240 230 219 216 208 206 206 201 198 193 184 174 166 149 151 153 172 174 179 193 196 188
239 256 237 234 239 242 255 254 262 267 271 270 279 284 260 252 250 249 252 249 249 244 241 234 226 221 217 219 209 207 201 201 191 179 177 172 182 195 202 208 203 192 194 207
219 213 228 242 255 244 267 299 259 256 253 265 238 260 272 226 248 254 250 248 252 246 238 232 227 221 218 223 207 198 195 201 195 187 189 191 198 207 203 201 206 199 196 207
260 239 254 258 293 233 210 223 216 212 230 250 236 240 272 228 245 260 257 256 260 255 245 237 230 211 196 184 181 181 188 197 198 191 193 197 201 201 197 200 205 206 207 213
253 210 194 208 211 169 205 244 258 237 225 247 180 235 258 288 275 274 278 284 296 279 253 235 226 215 208 198 191 192 188 199 206 197 198 203 210 211 209 211 215 215 217 223
260 245 190 199 225 220 216 237 248 270 272 280 209 241 255 303 310 302 293 288 287 274 259 243 235 230 222 217 213 216 226 223 216 212 211 210 210 218 221 222 227 225 231 235
247 263 113 227 255 216 199 218 266 272 281 272 251 254 270 240 260 259 269 250 243 250 268 273 269 249 242 233 228 229 232 234 227 228 228 224 218 218 224 228 234 236 239 242
241 261 244 234 199 213 260 194 188 220 260 263 261 253 251 232 233 237 249 238 242 269 301 296 283 276 276 272 259 244 244 245 247 240 236 238 235 234 230 228 230 240 245 240
232 240 242 209 213 212 186 197 214 224 250 262 272 262 227 243 238 239 258 248 243 254 278 292 300 303 306 303 273 254 252 251 249 248 243 241 243 243 244 241 240 243 246 242
211 241 252 235 189 298 233 221 207 227 231 236 265 270 138 244 262 257 266 265 257 259 264 275 302 314 318 316 303 277 262 256 256 255 249 247 249 246 244 251 250 245 247 245
175 211 262 230 189 184 222 227 230 241 245 235 246 260 124 250 267 266 269 273 263 254 260 275 299 302 304 301 297 292 279 267 263 254 245 249 250 251 254 256 258 250 245 247
193 221 235 256 282 195 218 221 216 214 235 244 244 262 264 270 276 277 275 269 258 252 259 268 275 282 290 296 295 292 287 275 259 248 243 250 255 257 261 264 261 256 248 247
212 241 246 261 267 254 247 241 225 222 235 248 260 264 270 270 272 273 272 266 258 255 259 263 266 271 278 287 293 293 290 284 260 245 244 250 259 260 260 261 260 260 256 250
220 244 253 263 256 258 258 250 238 236 242 249 262 270 272 279 277 270 265 257 256 257 262 268 271 273 273 281 292 297 296 286 262 246 250 256 257 256 256 257 259 256 258 256
202 212 240 261 272 278 257 236 223 225 226 232 247 259 271 274 270 270 267 253 254 261 266 267 267 268 275 280 287 288 290 291 268 253 254 253 251 251 254 258 257 254 254 256
204 207 234 270 276 251 255 176 213 227 239 232 244 264 274 273 285 285 268 259 261 268 270 272 274 275 276 281 289 293 287 276 263 257 257 256 252 253 254 253 255 259 258 257
220 212 225 238 254 266 262 206 198 219 251 232 237 258 276 302 298 263 244 262 268 276 279 277 273 269 266 268 282 285 282 276 263 260 263 265 258 254 254 250 254 259 260 260
211 218 225 225 244 256 263 138 173 194 252 218 222 251 267 278 272 287 15 302 292 300 301 294 285 272 261 272 273 265 279 281 275 273 273 274 267 258 256 258 262 262 260 262
189 205 221 231 244 260 277 138 166 210 267 87 217 238 229 231 261 322 327 315 311 310 306 299 276 265 275 284 266 264 274 278 287 289 283 277 273 267 263 263 262 261 263 267
199 200 209 213 230 248 135 152 200 250 4 307 271 253 241 248 272 292 298 303 308 308 305 297 280 287 297 278 254 265 276 290 297 292 287 283 280 277 269 264 265 262 259 261
214 212 210 209 228 353 161 195 236 310 265 278 281 281 264 256 260 272 283 285 288 285 281 279 270 284 295 281 261 265 285 300 297 291 290 290 289 280 272 263 260 259 256 257
225 235 235 249 256 251 227 243 260 256 262 279 284 279 257 253 256 259 268 275 278 273 269 262 258 270 287 292 283 280 295 294 287 287 291 290 284 282 276 269 261 258 257 258
230 189 224 250 273 291 255 243 250 256 263 272 281 274 253 244 249 253 262 268 273 274 271 256 254 266 282 291 291 299 300 292 282 284 286 286 282 281 280 275 273 270 265 265
196 193 205 241 240 237 263 299 279 252 256 252 257 280 281 253 246 253 262 267 268 268 266 261 264 272 282 287 289 298 298 287 278 279 282 281 284 284 279 280 283 277 274 282